Location: Unspecified
(0.0000°N, 0.0000°E)
Time: 07:16:44
(UTC+00:00)

Vanguard 2 Rocket - Pass Details

Date: 15 December 2017
Orbit: 556 x 3326 km, 32.9° (Epoch: 23 January)

Event Time Altitude Azimuth Distance (km) Brightness Sun altitude
Rises 00:08:36 0° 317° (NW) 6,997 - -66.5°
Reaches altitude 10° 00:13:57 10° 326° (NW) 6,165 - -66.3°
Maximum altitude 00:31:43 36° 26° (NNE) 4,309 - -65.1°
Exits shadow 00:43:33 18° 79° (E) 4,875 10.5 -63.9°
Drops below altitude 10° 00:46:41 10° 87° (E) 5,299 10.8 -63.6°
Sets 00:50:44 0° 96° (E) 5,968 11.3 -63.1°
